Weather History for KIOB - February, 2013

Change the Weather History Date:

Thursday, February 21, 2013

  Actual Average (KLEX) Record (KLEX)
Temperature  
Mean Temperature 27 °F 38 °F  
Max Temperature 37 °F 47 °F 71 °F (1874)
Min Temperature 17 °F 30 °F -2 °F (1896)
Degree Days  
Heating Degree Days 38 27  
Month to date heating degree days 610  
Since 1 July heating degree days 3393  
Cooling Degree Days 0 0  
Month to date cooling degree days 0  
Year to date cooling degree days 0  
Moisture  
Dew Point 18 °F    
Average Humidity 68    
Maximum Humidity 93    
Minimum Humidity 48    
Precipitation  
Precipitation 0.00 in 0.12 in 2.02 in (1993)
Month to date precipitation 2.38  
Year to date precipitation 5.58  
Snow  
Snow 0.00 in 0.20 in 6.20 in (1929)
Month to date snowfall 3.8  
Since 1 July snowfall 10.5  
Snow Depth -    
Sea Level Pressure  
Sea Level Pressure 30.22 in    
Wind  
Wind Speed 7 mph (East)    
Max Wind Speed 18 mph    
Max Gust Speed 24 mph    
Visibility 10 miles    
Events Rain , Snow    
T = Trace of Precipitation, MM = Missing Value Source: NWS Daily Summary

Daily Weather History Graph

Daily Weather History Graph

Search for Another Location

Airport or City:

Trip Planner

Search our weather history database for the weather conditions in past years. The results will help you decide how hot, cold, wet, or windy it might be!

Date:

Astronomy

Feb. 21, 2013 Rise Set
Actual Time 7:18 AM EST 6:21 PM EST
Civil Twilight 6:51 AM EST 6:48 PM EST
Nautical Twilight 6:20 AM EST 7:18 PM EST
Astronomical Twilight 5:50 AM EST 7:49 PM EST
Moon 2:37 PM EST (2/21) 4:19 AM EST (2/21)
Length of Visible Light 11h 56m
Length of Day
11h 03m
Waxing Gibbous, 83% of the Moon is Illuminated
Feb 21
Waxing Gibbous
Feb 25
Full
Mar 4
Last Quarter
Mar 11
New
Mar 19
First Quarter

Hourly Weather History & Observations

Time (EST) Temp. Windchill Dew Point Humidity Pressure Visibility Wind Dir Wind Speed Gust Speed Precip Events Conditions
12:15 AM 23.0 °F 15.8 °F 15.8 °F 74% 30.27 in 10.0 mi ENE 5.8 mph - N/A   Clear
12:35 AM 23.0 °F 14.7 °F 15.8 °F 74% 30.27 in 10.0 mi ENE 6.9 mph - N/A   Clear
12:55 AM 23.0 °F 15.8 °F 15.8 °F 74% 30.27 in 10.0 mi East 5.8 mph - N/A   Clear
1:15 AM 21.2 °F 14.9 °F 14.0 °F 74% 30.28 in 10.0 mi ENE 4.6 mph - N/A   Clear
1:35 AM 21.2 °F 16.4 °F 14.0 °F 74% 30.28 in 10.0 mi ENE 3.5 mph - N/A   Clear
1:55 AM 21.2 °F 14.9 °F 15.8 °F 80% 30.28 in 10.0 mi NE 4.6 mph - N/A   Clear
2:15 AM 21.2 °F 14.9 °F 15.8 °F 80% 30.28 in 10.0 mi NE 4.6 mph - N/A   Clear
2:35 AM 21.2 °F 14.9 °F 15.8 °F 80% 30.29 in 10.0 mi ENE 4.6 mph - N/A   Clear
2:55 AM 21.2 °F 16.4 °F 14.0 °F 74% 30.28 in 10.0 mi ENE 3.5 mph - N/A   Clear
3:15 AM 19.4 °F 14.3 °F 14.0 °F 80% 30.28 in 10.0 mi East 3.5 mph - N/A   Clear
3:35 AM 21.2 °F - 14.0 °F 74% 30.27 in 10.0 mi Calm Calm - N/A   Clear
3:55 AM 19.4 °F - 14.0 °F 80% 30.27 in 10.0 mi Calm Calm - N/A   Clear
4:15 AM 19.4 °F 14.3 °F 14.0 °F 80% 30.27 in 10.0 mi ENE 3.5 mph - N/A   Clear
4:35 AM 19.4 °F 11.5 °F 14.0 °F 80% 30.26 in 10.0 mi ENE 5.8 mph - N/A   Clear
4:55 AM 19.4 °F 11.5 °F 14.0 °F 80% 30.27 in 10.0 mi ENE 5.8 mph - N/A   Clear
5:15 AM 19.4 °F 12.8 °F 14.0 °F 80% 30.28 in 10.0 mi ENE 4.6 mph - N/A   Clear
5:35 AM 19.4 °F 12.8 °F 14.0 °F 80% 30.28 in 10.0 mi ENE 4.6 mph - N/A   Clear
5:55 AM 19.4 °F 14.3 °F 14.0 °F 80% 30.29 in 10.0 mi ENE 3.5 mph - N/A   Clear
6:15 AM 19.4 °F - 14.0 °F 80% 30.30 in 10.0 mi Calm Calm - N/A   Clear
6:55 AM 17.6 °F 8.2 °F 14.0 °F 86% 30.31 in 10.0 mi ENE 6.9 mph - N/A   Clear
7:15 AM 17.6 °F 8.2 °F 14.0 °F 86% 30.30 in 10.0 mi East 6.9 mph - N/A   Clear
7:35 AM 17.6 °F 9.3 °F 14.0 °F 86% 30.31 in 10.0 mi East 5.8 mph - N/A   Clear
7:55 AM 19.4 °F 11.5 °F 14.0 °F 80% 30.32 in 10.0 mi East 5.8 mph - N/A   Clear
8:15 AM 21.2 °F 12.6 °F 15.8 °F 80% 30.32 in 10.0 mi East 6.9 mph - N/A   Clear
8:35 AM 23.0 °F 14.7 °F 15.8 °F 74% 30.34 in 10.0 mi East 6.9 mph - N/A   Clear
8:55 AM 23.0 °F 13.1 °F 15.8 °F 74% 30.32 in 10.0 mi East 9.2 mph - N/A   Clear
9:15 AM 23.0 °F 13.9 °F 15.8 °F 74% 30.33 in 10.0 mi East 8.1 mph - N/A   Clear
9:35 AM 24.8 °F 15.3 °F 15.8 °F 69% 30.33 in 10.0 mi ESE 9.2 mph - N/A   Clear
9:55 AM 24.8 °F 14.6 °F 15.8 °F 69% 30.32 in 10.0 mi East 10.4 mph - N/A   Clear
10:15 AM 26.6 °F 18.2 °F 15.8 °F 64% 30.31 in 10.0 mi East 8.1 mph - N/A   Clear
10:35 AM 26.6 °F 17.5 °F 15.8 °F 64% 30.30 in 10.0 mi East 9.2 mph - N/A   Clear
10:55 AM 28.4 °F 19.7 °F 17.6 °F 64% 30.29 in 10.0 mi ESE 9.2 mph - N/A   Clear
11:15 AM 28.4 °F 19.1 °F 17.6 °F 64% 30.28 in 10.0 mi East 10.4 mph - N/A   Clear
11:35 AM 30.2 °F 19.8 °F 17.6 °F 60% 30.27 in 10.0 mi East 13.8 mph - N/A   Clear
11:55 AM 32.0 °F 24.2 °F 17.6 °F 55% 30.26 in 10.0 mi East 9.2 mph 16.1 mph N/A   Clear
12:15 PM 32.0 °F 23.0 °F 17.6 °F 55% 30.26 in 10.0 mi East 11.5 mph 16.1 mph N/A   Clear
12:35 PM 32.0 °F 24.2 °F 17.6 °F 55% 30.25 in 10.0 mi East 9.2 mph 16.1 mph N/A   Clear
1:15 PM 33.8 °F 27.0 °F 17.6 °F 52% 30.22 in 10.0 mi East 8.1 mph - N/A   Clear
1:35 PM 33.8 °F 25.8 °F 19.4 °F 56% 30.20 in 10.0 mi East 10.4 mph - N/A   Clear
1:55 PM 35.6 °F 29.2 °F 19.4 °F 52% 30.21 in 10.0 mi East 8.1 mph - N/A   Clear
2:15 PM 35.6 °F 28.6 °F 19.4 °F 52% 30.22 in 10.0 mi ESE 9.2 mph - N/A   Clear
2:35 PM 35.6 °F 29.2 °F 19.4 °F 52% 30.19 in 10.0 mi East 8.1 mph - N/A   Clear
2:55 PM 35.6 °F 28.6 °F 19.4 °F 52% 30.18 in 10.0 mi East 9.2 mph - N/A   Clear
3:15 PM 35.6 °F 28.0 °F 19.4 °F 52% 30.16 in 10.0 mi East 10.4 mph - N/A   Clear
3:35 PM 35.6 °F 27.5 °F 19.4 °F 52% 30.16 in 10.0 mi East 11.5 mph - N/A   Clear
3:55 PM 37.4 °F 29.8 °F 19.4 °F 48% 30.14 in 10.0 mi ESE 11.5 mph - N/A   Clear
4:15 PM 37.4 °F 28.9 °F 19.4 °F 48% 30.13 in 10.0 mi East 13.8 mph - N/A   Clear
4:35 PM 35.6 °F 27.5 °F 19.4 °F 52% 30.13 in 10.0 mi ESE 11.5 mph 17.3 mph N/A   Clear
4:55 PM 35.6 °F 27.5 °F 19.4 °F 52% 30.13 in 10.0 mi ESE 11.5 mph - N/A   Clear
5:15 PM 35.6 °F 25.9 °F 17.6 °F 48% 30.13 in 10.0 mi East 16.1 mph - N/A   Clear
5:35 PM 35.6 °F 27.5 °F 19.4 °F 52% 30.14 in 10.0 mi ESE 11.5 mph - N/A   Clear
5:55 PM 35.6 °F 27.1 °F 19.4 °F 52% 30.14 in 10.0 mi East 12.7 mph 18.4 mph N/A   Scattered Clouds
6:15 PM 35.6 °F 26.2 °F 19.4 °F 52% 30.12 in 10.0 mi East 15.0 mph 19.6 mph N/A   Scattered Clouds
6:35 PM 35.6 °F 26.2 °F 19.4 °F 52% 30.12 in 10.0 mi East 15.0 mph 20.7 mph N/A   Mostly Cloudy
6:55 PM 35.6 °F 28.0 °F 19.4 °F 52% 30.13 in 10.0 mi East 10.4 mph - N/A   Overcast
7:15 PM 33.8 °F 24.8 °F 21.2 °F 60% 30.13 in 10.0 mi East 12.7 mph 19.6 mph N/A Rain Light Rain
7:35 PM 33.8 °F 25.3 °F 21.2 °F 60% 30.13 in 10.0 mi East 11.5 mph - N/A   Light Drizzle
7:55 PM 33.8 °F 27.7 °F 21.2 °F 60% 30.16 in 10.0 mi East 6.9 mph - N/A   Overcast
8:15 PM 33.8 °F 27.7 °F 21.2 °F 60% 30.18 in 10.0 mi ENE 6.9 mph - N/A Rain Light Rain
8:35 PM 33.8 °F 26.4 °F 23.0 °F 65% 30.18 in 10.0 mi ENE 9.2 mph - N/A   Overcast
8:55 PM 32.0 °F 21.2 °F 23.0 °F 69% 30.14 in 10.0 mi East 16.1 mph - N/A Snow Light Snow
9:15 PM 32.0 °F 20.5 °F 23.0 °F 69% 30.12 in 10.0 mi ENE 18.4 mph 24.2 mph N/A Snow Light Snow
9:35 PM 32.0 °F 20.5 °F 23.0 °F 69% 30.10 in 10.0 mi East 18.4 mph 21.9 mph N/A   Overcast
9:55 PM 32.0 °F 24.8 °F 23.0 °F 69% 30.15 in 10.0 mi SE 8.1 mph - N/A   Overcast
10:15 PM 32.0 °F 22.5 °F 24.8 °F 75% 30.13 in 5.0 mi East 12.7 mph - N/A Snow Light Snow
10:35 PM 32.0 °F 23.0 °F 26.6 °F 80% 30.11 in 5.0 mi ESE 11.5 mph - N/A Snow Light Snow
10:55 PM 32.0 °F 23.6 °F 26.6 °F 80% 30.11 in 5.0 mi ESE 10.4 mph - N/A   Overcast
11:15 PM 30.2 °F 21.9 °F 28.4 °F 93% 30.08 in 7.0 mi ESE 9.2 mph 16.1 mph N/A   Overcast
11:35 PM 30.2 °F 21.9 °F 28.4 °F 93% 30.08 in 7.0 mi SE 9.2 mph - N/A   Overcast
11:55 PM 32.0 °F 25.6 °F 28.4 °F 87% 30.08 in 7.0 mi SE 6.9 mph - N/A   Overcast